OneWeb SL0300

operational
NORAD ID: 49089 Int'l Des: 2021-075 Owner: ONEWEBN Country: UK Constellation: oneweb
LEOCIRCULARPOLARONEWEB_TYPE

OneWeb SL0300について

説明を読み込み中...

リアルタイム位置

3D地球を読み込み中...

次回通過

高度履歴

Altitude vs Time

uPlot chart will show altitude changes over time

軌道要素

1 49089U 21075Q 25352.57459009 -.00000120 00000-0 -36880-3 0 9994
2 49089 87.8937 26.5278 0002083 96.9114 263.2251 13.12394757211510
Epoch: Dec 18, 2025 • Age: 11 hours

現在のステータス

高度 1216.0 km
速度 7.25 km/s
衛星直下点 9.21°N, 73.33°W
打ち上げ日 Aug 21, 2021
運用期間 4.3 years
タイプ internet

技術仕様

分類 Payload
質量 148.00 kg
乾燥質量 140.00 kg
総質量 148.00 kg
長さ 1.30 m
直径 1.00 m
スパン 5.00 m
形状 Trapezoid+2 pan
製造者 ONEWUS
バスタイプ ARROW
フェーズステータス In Orbit
所有者/国 ONEWEBN/UK

大規模コンステレーション

Loading constellations...